| time (UTC) | temp F | wind direction | speed MPH | gust MPH | rain 1hr in | rain 24hr in | rain mn in | humidity % | barometer mb |
| 20260507115902 | 52 | 138 | 0.0 | 1.0 | 0.00 | 0.00 | 0.00 | 89 | 1017.9 |
| 20260507114901 | 52 | 139 | 0.0 | 2.0 | 0.00 | 0.00 | 0.00 | 89 | 1017.9 |
| 20260507113906 | 52 | 136 | 0.0 | 1.0 | 0.00 | 0.00 | 0.00 | 88 | 1017.5 |
| 20260507113411 | 52 | 136 | 0.0 | 1.0 | 0.00 | 0.00 | 0.00 | 88 | 1017.6 |
| 20260507112918 | 52 | 136 | 0.0 | 1.0 | 0.00 | 0.00 | 0.00 | 88 | 1017.6 |
| 20260507111916 | 52 | 224 | 0.0 | 1.0 | 0.00 | 0.00 | 0.00 | 87 | 1017.4 |
| 20260507111444 | 52 | 224 | 0.0 | 1.0 | 0.00 | 0.00 | 0.00 | 87 | 1017.2 |
| 20260507110858 | 52 | 224 | 0.0 | 1.0 | 0.00 | 0.00 | 0.00 | 87 | 1017.0 |
| 20260507110436 | 52 | 225 | 0.0 | 1.0 | 0.00 | 0.00 | 0.00 | 87 | 1016.9 |
| 20260507105858 | 52 | 272 | 0.0 | 2.0 | 0.00 | 0.00 | 0.00 | 86 | 1016.6 |
| 20260507104858 | 53 | 224 | 0.0 | 2.0 | 0.00 | 0.00 | 0.00 | 85 | 1016.3 |
| 20260507103859 | 53 | 236 | 0.0 | 1.0 | 0.00 | 0.00 | 0.00 | 85 | 1016.2 |
| 20260507102859 | 53 | 221 | 0.0 | 2.0 | 0.00 | 0.00 | 0.00 | 84 | 1016.0 |
| 20260507101911 | 53 | 231 | 1.0 | 3.0 | 0.00 | 0.00 | 0.00 | 83 | 1015.8 |
| 20260507100856 | 53 | 226 | 0.0 | 4.0 | 0.00 | 0.00 | 0.00 | 84 | 1015.7 |
| 20260507100432 | 53 | 257 | 1.0 | 4.0 | 0.00 | 0.00 | 0.00 | 84 | 1015.6 |
| 20260507095849 | 53 | 226 | 1.0 | 2.0 | 0.00 | 0.00 | 0.00 | 84 | 1015.7 |
| 20260507094901 | 53 | 242 | 0.0 | 2.0 | 0.00 | 0.00 | 0.00 | 85 | 1015.8 |
| 20260507093905 | 53 | 229 | 1.0 | 2.0 | 0.00 | 0.00 | 0.00 | 85 | 1015.5 |
| 20260507093419 | 53 | 257 | 1.0 | 2.0 | 0.00 | 0.00 | 0.00 | 85 | 1015.5 |
| 20260507092931 | 53 | 245 | 0.0 | 2.0 | 0.00 | 0.00 | 0.00 | 85 | 1015.6 |
| 20260507092351 | 53 | 234 | 1.0 | 2.0 | 0.00 | 0.00 | 0.00 | 85 | 1015.5 |
| 20260507091358 | 53 | 252 | 1.0 | 2.0 | 0.00 | 0.00 | 0.00 | 86 | 1015.4 |
| 20260507090406 | 53 | 252 | 1.0 | 2.0 | 0.00 | 0.00 | 0.00 | 85 | 1015.3 |
| 20260507085410 | 53 | 256 | 1.0 | 2.0 | 0.00 | 0.00 | 0.00 | 85 | 1015.0 |
| 20260507083904 | 53 | 266 | 2.0 | 4.0 | 0.00 | 0.00 | 0.00 | 85 | 1015.1 |
| 20260507083436 | 53 | 288 | 1.0 | 3.0 | 0.00 | 0.00 | 0.00 | 85 | 1015.1 |
| 20260507082853 | 53 | 258 | 1.0 | 3.0 | 0.00 | 0.00 | 0.00 | 85 | 1015.0 |
| 20260507082434 | 53 | 238 | 1.0 | 4.0 | 0.00 | 0.00 | 0.00 | 85 | 1014.9 |
| 20260507081853 | 53 | 276 | 2.0 | 4.0 | 0.00 | 0.00 | 0.00 | 85 | 1014.9 |
| 20260507081430 | 53 | 275 | 2.0 | 5.0 | 0.00 | 0.00 | 0.00 | 85 | 1014.8 |
| 20260507080849 | 53 | 275 | 2.0 | 5.0 | 0.00 | 0.00 | 0.00 | 85 | 1014.8 |
| 20260507075914 | 53 | 269 | 2.0 | 4.0 | 0.00 | 0.00 | 0.00 | 86 | 1015.0 |
| 20260507075406 | 53 | 255 | 2.0 | 3.0 | 0.00 | 0.00 | 0.00 | 86 | 1014.8 |
| 20260507074400 | 53 | 268 | 1.0 | 3.0 | 0.00 | 0.00 | 0.00 | 86 | 1015.2 |
| 20260507073406 | 53 | 244 | 2.0 | 3.0 | 0.00 | 0.00 | 0.00 | 86 | 1015.2 |
| 20260507072356 | 53 | 298 | 1.0 | 5.0 | 0.00 | 0.00 | 0.00 | 86 | 1015.3 |
| 20260507071915 | 54 | 271 | 3.0 | 5.0 | 0.00 | 0.00 | 0.00 | 86 | 1015.4 |
| 20260507071443 | 54 | 257 | 2.0 | 5.0 | 0.00 | 0.00 | 0.00 | 86 | 1015.5 |
| 20260507070908 | 54 | 294 | 2.0 | 5.0 | 0.00 | 0.00 | 0.00 | 86 | 1015.6 |
| 20260507070350 | 54 | 261 | 2.0 | 3.0 | 0.00 | 0.00 | 0.00 | 86 | 1015.6 |
| 20260507065856 | 54 | 228 | 2.0 | 4.0 | 0.00 | 0.00 | 0.00 | 86 | 1015.7 |
| 20260507065356 | 54 | 253 | 2.0 | 4.0 | 0.00 | 0.00 | 0.00 | 86 | 1015.8 |
| 20260507064846 | 54 | 257 | 2.0 | 4.0 | 0.00 | 0.00 | 0.00 | 86 | 1016.1 |
| 20260507064346 | 54 | 248 | 1.0 | 4.0 | 0.00 | 0.00 | 0.00 | 86 | 1015.9 |
| 20260507063908 | 54 | 260 | 2.0 | 4.0 | 0.00 | 0.00 | 0.00 | 86 | 1016.0 |
| 20260507063346 | 54 | 245 | 2.0 | 4.0 | 0.00 | 0.00 | 0.00 | 86 | 1016.0 |
| 20260507062854 | 54 | 269 | 2.0 | 4.0 | 0.00 | 0.00 | 0.00 | 86 | 1015.9 |
| 20260507062352 | 54 | 234 | 1.0 | 4.0 | 0.00 | 0.00 | 0.00 | 86 | 1016.2 |
| 20260507061853 | 54 | 239 | 3.0 | 4.0 | 0.00 | 0.00 | 0.00 | 86 | 1016.1 |
| 20260507061409 | 54 | 228 | 2.0 | 5.0 | 0.00 | 0.00 | 0.00 | 86 | 1015.8 |
| 20260507060913 | 54 | 271 | 2.0 | 5.0 | 0.00 | 0.00 | 0.00 | 86 | 1016.1 |
| 20260507060410 | 54 | 241 | 2.0 | 8.0 | 0.00 | 0.00 | 0.00 | 86 | 1015.9 |
| 20260507055847 | 54 | 235 | 2.0 | 8.0 | 0.00 | 0.00 | 0.00 | 86 | 1015.9 |
| 20260507055403 | 54 | 238 | 2.0 | 6.0 | 0.00 | 0.00 | 0.00 | 86 | 1015.9 |
| 20260507054857 | 54 | 206 | 2.0 | 6.0 | 0.00 | 0.00 | 0.00 | 85 | 1015.9 |
| 20260507054358 | 54 | 241 | 2.0 | 5.0 | 0.00 | 0.00 | 0.00 | 85 | 1015.9 |
| 20260507053929 | 55 | 242 | 3.0 | 6.0 | 0.00 | 0.00 | 0.00 | 85 | 1016.0 |
| 20260507053405 | 55 | 245 | 3.0 | 5.0 | 0.00 | 0.00 | 0.00 | 85 | 1016.0 |
| 20260507052856 | 55 | 238 | 2.0 | 5.0 | 0.00 | 0.00 | 0.00 | 85 | 1015.8 |
| 20260507052356 | 55 | 213 | 1.0 | 4.0 | 0.00 | 0.00 | 0.00 | 86 | 1015.9 |
| 20260507051908 | 55 | 214 | 2.0 | 4.0 | 0.00 | 0.00 | 0.00 | 86 | 1016.1 |
| 20260507051345 | 55 | 99 | 1.0 | 4.0 | 0.00 | 0.00 | 0.00 | 86 | 1016.1 |
| 20260507050929 | 55 | 215 | 1.0 | 6.0 | 0.00 | 0.00 | 0.00 | 86 | 1016.2 |
| 20260507050408 | 55 | 230 | 3.0 | 6.0 | 0.00 | 0.00 | 0.00 | 86 | 1016.1 |
| 20260507045927 | 55 | 238 | 1.0 | 5.0 | 0.00 | 0.00 | 0.00 | 86 | 1016.1 |
| 20260507044924 | 55 | 225 | 2.0 | 5.0 | 0.00 | 0.00 | 0.00 | 86 | 1016.1 |
| 20260507043920 | 55 | 233 | 2.0 | 5.0 | 0.00 | 0.00 | 0.00 | 86 | 1016.1 |
| 20260507042911 | 55 | 228 | 2.0 | 4.0 | 0.00 | 0.00 | 0.00 | 86 | 1015.9 |
| 20260507042430 | 55 | 254 | 2.0 | 4.0 | 0.00 | 0.00 | 0.00 | 86 | 1015.8 |
| 20260507041907 | 55 | 201 | 2.0 | 3.0 | 0.00 | 0.00 | 0.00 | 86 | 1016.0 |
| 20260507040913 | 55 | 203 | 1.0 | 4.0 | 0.00 | 0.00 | 0.00 | 87 | 1015.7 |
| 20260507035918 | 56 | 229 | 2.0 | 4.0 | 0.00 | 0.00 | 0.00 | 88 | 1015.9 |
| 20260507035413 | 56 | 258 | 2.0 | 4.0 | 0.00 | 0.00 | 0.00 | 88 | 1015.9 |
| 20260507034413 | 56 | 232 | 3.0 | 5.0 | 0.00 | 0.00 | 0.00 | 89 | 1015.5 |
| 20260507033432 | 56 | 234 | 1.0 | 3.0 | 0.00 | 0.00 | 0.00 | 89 | 1015.5 |
| 20260507032851 | 56 | 238 | 1.0 | 4.0 | 0.00 | 0.00 | 0.00 | 89 | 1015.5 |
| 20260507032407 | 56 | 263 | 2.0 | 4.0 | 0.00 | 0.00 | 0.00 | 89 | 1015.2 |
| 20260507031402 | 56 | 240 | 2.0 | 5.0 | 0.00 | 0.00 | 0.00 | 89 | 1015.1 |
| 20260507030405 | 57 | 221 | 2.0 | 4.0 | 0.00 | 0.00 | 0.00 | 88 | 1014.9 |
| 20260507025356 | 57 | 204 | 1.0 | 3.0 | 0.00 | 0.00 | 0.00 | 88 | 1014.8 |
| 20260507024355 | 57 | 236 | 2.0 | 4.0 | 0.00 | 0.00 | 0.00 | 88 | 1014.5 |
| 20260507023925 | 57 | 241 | 2.0 | 4.0 | 0.00 | 0.00 | 0.00 | 88 | 1014.7 |
| 20260507023353 | 58 | 241 | 1.0 | 3.0 | 0.00 | 0.00 | 0.00 | 89 | 1014.2 |
| 20260507022934 | 58 | 236 | 2.0 | 3.0 | 0.00 | 0.00 | 0.00 | 89 | 1014.0 |
| 20260507022408 | 58 | 254 | 1.0 | 3.0 | 0.00 | 0.00 | 0.00 | 90 | 1014.0 |
| 20260507020917 | 58 | 208 | 1.0 | 4.0 | 0.00 | 0.00 | 0.00 | 91 | 1014.1 |
| 20260507015900 | 58 | 290 | 1.0 | 4.0 | 0.00 | 0.00 | 0.00 | 91 | 1013.6 |
| 20260507015430 | 58 | 194 | 2.0 | 4.0 | 0.00 | 0.00 | 0.00 | 91 | 1013.4 |
| 20260507015002 | 58 | 221 | 2.0 | 4.0 | 0.00 | 0.00 | 0.00 | 91 | 1013.3 |
| 20260507014406 | 58 | 224 | 1.0 | 4.0 | 0.00 | 0.00 | 0.00 | 92 | 1013.0 |
| 20260507013414 | 58 | 265 | 1.0 | 3.0 | 0.00 | 0.00 | 0.00 | 92 | 1012.5 |
| 20260507012920 | 59 | 215 | 1.0 | 2.0 | 0.00 | 0.00 | 0.00 | 92 | 1012.7 |
| 20260507012439 | 59 | 213 | 1.0 | 2.0 | 0.00 | 0.00 | 0.00 | 92 | 1012.7 |
| 20260507011852 | 59 | 216 | 1.0 | 3.0 | 0.00 | 0.00 | 0.00 | 92 | 1012.8 |
| 20260507011430 | 59 | 239 | 2.0 | 3.0 | 0.00 | 0.00 | 0.00 | 92 | 1012.9 |
| 20260507010939 | 59 | 229 | 1.0 | 3.0 | 0.00 | 0.00 | 0.00 | 92 | 1012.7 |
| 20260507010352 | 59 | 217 | 1.0 | 3.0 | 0.00 | 0.00 | 0.00 | 92 | 1012.5 |
| 20260507005932 | 59 | 233 | 1.0 | 3.0 | 0.00 | 0.00 | 0.00 | 92 | 1012.4 |
| 20260507004912 | 60 | 144 | 0.0 | 7.0 | 0.00 | 0.00 | 0.00 | 92 | 1012.5 |
| 20260507003925 | 60 | 210 | 1.0 | 2.0 | 0.00 | 0.00 | 0.00 | 92 | 1012.2 |
| 20260507003446 | 60 | 126 | 0.0 | 2.0 | 0.00 | 0.00 | 0.00 | 92 | 1012.3 |
| 20260507002417 | 60 | 242 | 1.0 | 6.0 | 0.00 | 0.00 | 0.00 | 92 | 1011.9 |
| 20260507001950 | 60 | 227 | 1.0 | 6.0 | 0.00 | 0.00 | 0.00 | 91 | 1011.9 |
| 20260507000904 | 60 | 207 | 1.0 | 4.0 | 0.00 | 0.00 | 0.00 | 91 | 1012.3 |
| 20260507000442 | 60 | 228 | 1.0 | 2.0 | 0.00 | 0.00 | 0.00 | 91 | 1012.3 |
| 20260506235852 | 60 | 245 | 1.0 | 3.0 | 0.00 | 0.00 | 0.00 | 91 | 1012.3 |
| 20260506235424 | 60 | 240 | 2.0 | 4.0 | 0.00 | 0.00 | 0.00 | 91 | 1012.3 |
| 20260506234904 | 60 | 167 | 1.0 | 4.0 | 0.00 | 0.00 | 0.00 | 90 | 1012.0 |
| 20260506234430 | 60 | 230 | 1.0 | 4.0 | 0.00 | 0.00 | 0.00 | 90 | 1012.2 |
| 20260506233857 | 61 | 249 | 1.0 | 3.0 | 0.00 | 0.00 | 0.00 | 90 | 1012.2 |
| 20260506233424 | 61 | 139 | 0.0 | 3.0 | 0.00 | 0.00 | 0.00 | 90 | 1012.1 |
| 20260506232845 | 61 | 250 | 0.0 | 3.0 | 0.00 | 0.00 | 0.00 | 90 | 1012.3 |
| 20260506231919 | 61 | 131 | 0.0 | 2.0 | 0.00 | 0.00 | 0.00 | 89 | 1011.8 |
| 20260506230934 | 61 | 160 | 0.0 | 3.0 | 0.00 | 0.00 | 0.00 | 89 | 1011.9 |
| 20260506230438 | 61 | 248 | 0.0 | 1.0 | 0.00 | 0.00 | 0.00 | 89 | 1011.5 |
| 20260506225414 | 61 | 141 | 0.0 | 3.0 | 0.00 | 0.00 | 0.00 | 89 | 1011.9 |
| 20260506224411 | 61 | 234 | 1.0 | 5.0 | 0.00 | 0.00 | 0.00 | 89 | 1011.7 |
| 20260506223954 | 61 | 203 | 2.0 | 5.0 | 0.00 | 0.00 | 0.00 | 88 | 1011.6 |
| 20260506223412 | 61 | 134 | 1.0 | 3.0 | 0.00 | 0.00 | 0.00 | 88 | 1011.5 |
| 20260506222919 | 61 | 232 | 1.0 | 3.0 | 0.00 | 0.00 | 0.00 | 88 | 1011.6 |
| 20260506221927 | 61 | 220 | 1.0 | 4.0 | 0.00 | 0.00 | 0.00 | 88 | 1011.5 |
| 20260506220932 | 61 | 210 | 1.0 | 4.0 | 0.00 | 0.00 | 0.00 | 88 | 1011.4 |
| 20260506220354 | 61 | 232 | 1.0 | 4.0 | 0.00 | 0.00 | 0.00 | 88 | 1011.5 |
| 20260506215927 | 61 | 208 | 1.0 | 2.0 | 0.00 | 0.00 | 0.00 | 88 | 1011.4 |
| 20260506214909 | 61 | 234 | 0.0 | 3.0 | 0.00 | 0.00 | 0.00 | 88 | 1011.3 |
| 20260506214437 | 61 | 131 | 0.0 | 3.0 | 0.00 | 0.00 | 0.00 | 88 | 1011.5 |
| 20260506213845 | 61 | 129 | 0.0 | 7.0 | 0.00 | 0.00 | 0.00 | 87 | 1011.7 |
| 20260506213414 | 62 | 125 | 2.0 | 7.0 | 0.00 | 0.00 | 0.00 | 87 | 1011.6 |
| 20260506212913 | 62 | 149 | 1.0 | 4.0 | 0.00 | 0.00 | 0.00 | 86 | 1011.6 |
| 20260506212410 | 62 | 228 | 0.0 | 3.0 | 0.00 | 0.00 | 0.00 | 86 | 1011.4 |
| 20260506211405 | 62 | 136 | 1.0 | 5.0 | 0.00 | 0.00 | 0.00 | 86 | 1011.3 |
| 20260506210417 | 62 | 138 | 1.0 | 7.0 | 0.00 | 0.00 | 0.00 | 85 | 1011.3 |
| 20260506204913 | 63 | 130 | 1.0 | 3.0 | 0.00 | 0.00 | 0.00 | 84 | 1011.3 |
| 20260506203844 | 63 | 136 | 0.0 | 3.0 | 0.00 | 0.00 | 0.00 | 84 | 1011.1 |
| 20260506203420 | 63 | 126 | 1.0 | 3.0 | 0.00 | 0.00 | 0.00 | 84 | 1011.1 |
| 20260506202932 | 63 | 215 | 0.0 | 3.0 | 0.00 | 0.00 | 0.00 | 84 | 1011.0 |
| 20260506202344 | 63 | 237 | 0.0 | 2.0 | 0.00 | 0.00 | 0.00 | 84 | 1010.9 |
| 20260506201932 | 63 | 136 | 0.0 | 1.0 | 0.00 | 0.00 | 0.00 | 84 | 1010.9 |
| 20260506201344 | 62 | 243 | 0.0 | 1.0 | 0.00 | 0.00 | 0.00 | 85 | 1011.1 |
| 20260506200923 | 62 | 205 | 0.0 | 2.0 | 0.00 | 0.00 | 0.00 | 86 | 1011.3 |
| 20260506195918 | 62 | 135 | 1.0 | 2.0 | 0.00 | 0.00 | 0.00 | 86 | 1011.6 |
| 20260506195437 | 62 | 254 | 1.0 | 2.0 | 0.00 | 0.00 | 0.00 | 86 | 1011.5 |
| 20260506195001 | 61 | 219 | 0.0 | 1.0 | 0.00 | 0.00 | 0.00 | 86 | 1011.4 |
| 20260506194348 | 61 | 257 | 0.0 | 3.0 | 0.00 | 0.00 | 0.00 | 87 | 1011.7 |
| 20260506193916 | 61 | 259 | 1.0 | 3.0 | 0.00 | 0.00 | 0.00 | 86 | 1011.8 |
| 20260506193404 | 61 | 158 | 0.0 | 2.0 | 0.00 | 0.00 | 0.00 | 87 | 1011.8 |
| 20260506192402 | 60 | 250 | 1.0 | 3.0 | 0.00 | 0.00 | 0.00 | 86 | 1011.7 |
| 20260506191935 | 60 | 254 | 2.0 | 3.0 | 0.00 | 0.00 | 0.00 | 86 | 1011.5 |
| 20260506190901 | 60 | 209 | 1.0 | 3.0 | 0.00 | 0.00 | 0.00 | 86 | 1011.5 |
| 20260506185912 | 60 | 217 | 2.0 | 4.0 | 0.00 | 0.00 | 0.00 | 86 | 1011.1 |
| 20260506184848 | 60 | 254 | 1.0 | 4.0 | 0.00 | 0.00 | 0.00 | 86 | 1011.1 |
| 20260506184428 | 60 | 250 | 1.0 | 5.0 | 0.00 | 0.00 | 0.00 | 87 | 1010.9 |
| 20260506183849 | 60 | 214 | 3.0 | 5.0 | 0.00 | 0.00 | 0.00 | 86 | 1010.6 |
| 20260506183421 | 60 | 259 | 3.0 | 5.0 | 0.00 | 0.00 | 0.00 | 85 | 1010.4 |
| 20260506182845 | 60 | 250 | 2.0 | 4.0 | 0.00 | 0.00 | 0.00 | 85 | 1010.4 |
| 20260506182432 | 60 | 248 | 1.0 | 4.0 | 0.00 | 0.00 | 0.00 | 85 | 1010.7 |
| 20260506181902 | 61 | 228 | 0.0 | 3.0 | 0.00 | 0.00 | 0.00 | 85 | 1010.7 |
| 20260506180857 | 61 | 242 | 1.0 | 3.0 | 0.00 | 0.00 | 0.00 | 84 | 1010.9 |
| 20260506180434 | 61 | 138 | 0.0 | 3.0 | 0.00 | 0.00 | 0.00 | 84 | 1011.7 |
| 20260506175846 | 61 | 240 | 1.0 | 3.0 | 0.00 | 0.00 | 0.00 | 84 | 1011.9 |
| 20260506174904 | 61 | 144 | 1.0 | 2.0 | 0.00 | 0.00 | 0.00 | 85 | 1012.3 |
| 20260506174419 | 61 | 136 | 0.0 | 3.0 | 0.00 | 0.00 | 0.00 | 85 | 1012.2 |
| 20260506173351 | 60 | 281 | 1.0 | 3.0 | 0.00 | 0.00 | 0.00 | 86 | 1011.6 |
| 20260506172941 | 59 | 281 | 1.0 | 3.0 | 0.00 | 0.00 | 0.00 | 86 | 1011.5 |
| 20260506172359 | 59 | 274 | 1.0 | 4.0 | 0.00 | 0.00 | 0.00 | 87 | 1011.9 |
| 20260506171930 | 58 | 246 | 2.0 | 4.0 | 0.00 | 0.00 | 0.00 | 87 | 1012.0 |
| 20260506171439 | 58 | 250 | 2.0 | 5.0 | 0.00 | 0.00 | 0.00 | 87 | 1012.3 |
| 20260506170847 | 58 | 260 | 0.0 | 3.0 | 0.00 | 0.00 | 0.00 | 88 | 1012.7 |
| 20260506170430 | 58 | 219 | 2.0 | 3.0 | 0.00 | 0.00 | 0.00 | 88 | 1012.8 |
| 20260506165409 | 58 | 243 | 1.0 | 5.0 | 0.00 | 0.00 | 0.00 | 88 | 1013.0 |
| 20260506164947 | 57 | 216 | 1.0 | 5.0 | 0.00 | 0.00 | 0.00 | 89 | 1013.8 |
| 20260506163909 | 57 | 117 | 0.0 | 2.0 | 0.00 | 0.00 | 0.00 | 89 | 1014.1 |
| 20260506162848 | 57 | 139 | 1.0 | 9.0 | 0.00 | 0.00 | 0.00 | 88 | 1014.2 |
| 20260506162414 | 57 | 130 | 1.0 | 5.0 | 0.00 | 0.00 | 0.00 | 88 | 1014.0 |
| 20260506161851 | 57 | 135 | 1.0 | 7.0 | 0.00 | 0.00 | 0.00 | 88 | 1014.0 |
| 20260506161422 | 58 | 155 | 2.0 | 7.0 | 0.00 | 0.00 | 0.00 | 87 | 1013.8 |
| 20260506160351 | 58 | 117 | 1.0 | 5.0 | 0.00 | 0.00 | 0.00 | 87 | 1013.3 |
| 20260506155420 | 58 | 136 | 1.0 | 3.0 | 0.00 | 0.00 | 0.00 | 87 | 1013.0 |
| 20260506154938 | 58 | 142 | 1.0 | 2.0 | 0.00 | 0.00 | 0.00 | 87 | 1012.6 |
| 20260506154453 | 58 | 142 | 1.0 | 7.0 | 0.00 | 0.00 | 0.00 | 87 | 1012.6 |
| 20260506153845 | 58 | 133 | 2.0 | 7.0 | 0.00 | 0.00 | 0.00 | 87 | 1012.6 |
| 20260506153405 | 59 | 175 | 1.0 | 4.0 | 0.00 | 0.00 | 0.00 | 87 | 1012.3 |
| 20260506152402 | 59 | 156 | 0.0 | 3.0 | 0.00 | 0.00 | 0.00 | 87 | 1012.1 |
| 20260506151927 | 59 | 205 | 1.0 | 3.0 | 0.00 | 0.00 | 0.00 | 86 | 1012.0 |
| 20260506151503 | 59 | 204 | 1.0 | 3.0 | 0.00 | 0.00 | 0.00 | 86 | 1011.9 |
| 20260506150851 | 59 | 134 | 1.0 | 3.0 | 0.00 | 0.00 | 0.00 | 86 | 1012.1 |
| 20260506145902 | 59 | 138 | 1.0 | 2.0 | 0.00 | 0.00 | 0.00 | 87 | 1012.2 |
| 20260506145440 | 59 | 139 | 0.0 | 3.0 | 0.00 | 0.00 | 0.00 | 87 | 1012.1 |
| 20260506144857 | 59 | 246 | 1.0 | 4.0 | 0.00 | 0.00 | 0.00 | 86 | 1011.8 |
| 20260506143917 | 59 | 227 | 0.0 | 3.0 | 0.00 | 0.00 | 0.00 | 87 | 1011.6 |
| 20260506142415 | 59 | 222 | 1.0 | 4.0 | 0.00 | 0.00 | 0.00 | 87 | 1011.2 |
| 20260506141355 | 59 | 210 | 1.0 | 4.0 | 0.00 | 0.00 | 0.00 | 86 | 1011.2 |
| 20260506140931 | 59 | 232 | 1.0 | 9.0 | 0.00 | 0.00 | 0.00 | 88 | 1011.4 |
| 20260506140345 | 59 | 128 | 2.0 | 9.0 | 0.00 | 0.00 | 0.00 | 87 | 1011.3 |
| 20260506135914 | 59 | 142 | 1.0 | 4.0 | 0.00 | 0.00 | 0.00 | 88 | 1011.1 |
| 20260506134852 | 60 | 223 | 1.0 | 2.0 | 0.00 | 0.00 | 0.00 | 88 | 1010.9 |
| 20260506134419 | 60 | 147 | 1.0 | 5.0 | 0.00 | 0.00 | 0.00 | 88 | 1010.8 |
| 20260506133416 | 60 | 207 | 0.0 | 4.0 | 0.00 | 0.00 | 0.00 | 89 | 1010.8 |
| 20260506132401 | 60 | 247 | 0.0 | 4.0 | 0.00 | 0.00 | 0.00 | 89 | 1010.8 |
| 20260506131934 | 60 | 211 | 1.0 | 4.0 | 0.00 | 0.00 | 0.00 | 88 | 1010.8 |
| 20260506131359 | 61 | 146 | 0.0 | 3.0 | 0.00 | 0.00 | 0.00 | 88 | 1010.8 |
| 20260506130353 | 61 | 197 | 0.0 | 3.0 | 0.00 | 0.00 | 0.00 | 89 | 1010.6 |
| 20260506125926 | 61 | 142 | 1.0 | 3.0 | 0.00 | 0.00 | 0.00 | 89 | 1010.6 |
| 20260506124902 | 62 | 134 | 1.0 | 4.0 | 0.00 | 0.00 | 0.00 | 88 | 1010.4 |
| 20260506124441 | 62 | 227 | 1.0 | 4.0 | 0.00 | 0.00 | 0.00 | 88 | 1010.3 |
| 20260506123858 | 62 | 105 | 1.0 | 3.0 | 0.00 | 0.00 | 0.00 | 88 | 1010.2 |
| 20260506123413 | 63 | 139 | 0.0 | 2.0 | 0.00 | 0.00 | 0.00 | 88 | 1010.1 |
| 20260506122851 | 63 | 252 | 0.0 | 0.0 | 0.00 | 0.00 | 0.00 | 88 | 1009.9 |
| 20260506122410 | 63 | 241 | 0.0 | 2.0 | 0.00 | 0.00 | 0.00 | 88 | 1009.9 |
| 20260506121354 | 64 | 135 | 1.0 | 2.0 | 0.00 | 0.00 | 0.00 | 87 | 1009.8 |
| 20260506120923 | 64 | 138 | 0.0 | 2.0 | 0.00 | 0.00 | 0.00 | 87 | 1009.7 |
| 20260506115918 | 64 | 124 | 0.0 | 1.0 | 0.00 | 0.00 | 0.00 | 86 | 1009.5 |